Location: Unspecified
(0.0000°N, 0.0000°E)
Time: 13:02:38
(UTC+00:00)

USA 184 - Pass Details

Date: 08 June 2023
Orbit: 1078 x 39274 km, 63.5° (Epoch: 28 February)

Event Time Altitude Azimuth Distance (km) Brightness Sun altitude
Rises 09:12:29 0° 220° (SW) 6,096 6.2 43.5°
Reaches altitude 10° 09:14:51 10° 224° (SW) 5,726 6.1 44.0°
Maximum altitude 20:24:59 87° 255° (WSW) 6,842 6.6 -33.2°
Enters shadow 20:38:38 34° 164° (SSE) 4,920 5.7 -36.2°
